Precipitable_Water
0.51 0.47 0.43 0.37 0.33 0.32 0.31 0.29 0.28 0.29 0.29 0.28 0.28 0.28 0.27 0.26 0.25 0.23 0.23 0.23 0.22 0.23 0.24 0.25 0.25 0.26 0.27 0.27 0.28 0.29 0.28 0.28 0.23 0.24 0.30 0.33 0.34 0.34 0.35 0.36 0.37 0.36 0.37
0.48 0.41 0.38 0.36 0.32 0.29 0.29 0.27 0.27 0.27 0.29 0.29 0.28 0.27 0.26 0.26 0.25 0.23 0.22 0.22 0.21 0.21 0.23 0.24 0.24 0.25 0.27 0.28 0.28 0.28 0.28 0.29 0.27 0.23 0.28 0.31 0.32 0.34 0.34 0.34 0.35 0.37 0.38
0.42 0.36 0.34 0.33 0.33 0.29 0.27 0.26 0.27 0.28 0.28 0.27 0.28 0.27 0.27 0.26 0.25 0.23 0.22 0.22 0.22 0.23 0.23 0.23 0.23 0.25 0.25 0.25 0.26 0.27 0.27 0.28 0.29 0.27 0.27 0.32 0.33 0.33 0.32 0.34 0.35 0.37 0.38
0.34 0.31 0.29 0.28 0.26 0.25 0.26 0.26 0.27 0.28 0.27 0.28 0.29 0.28 0.27 0.26 0.25 0.22 0.23 0.23 0.24 0.23 0.24 0.24 0.25 0.24 0.23 0.23 0.24 0.26 0.27 0.28 0.28 0.28 0.28 0.30 0.31 0.33 0.33 0.31 0.31 0.36 0.35
0.27 0.26 0.25 0.26 0.25 0.25 0.24 0.25 0.27 0.28 0.28 0.28 0.29 0.28 0.28 0.28 0.24 0.24 0.24 0.24 0.23 0.23 0.24 0.24 0.26 0.23 0.24 0.24 0.24 0.26 0.27 0.27 0.27 0.27 0.28 0.29 0.29 0.30 0.29 0.32 0.32 0.34 0.36
0.25 0.24 0.26 0.26 0.24 0.24 0.24 0.25 0.26 0.27 0.28 0.28 0.28 0.28 0.28 0.25 0.23 0.21 0.23 0.23 0.23 0.23 0.22 0.25 0.26 0.25 0.26 0.27 0.27 0.28 0.29 0.27 0.27 0.27 0.27 0.27 0.30 0.31 0.32 0.32 0.32 0.31 0.29
0.24 0.25 0.25 0.26 0.24 0.24 0.24 0.24 0.25 0.26 0.28 0.28 0.29 0.29 0.29 0.28 0.24 0.22 0.21 0.24 0.24 0.24 0.23 0.25 0.24 0.26 0.28 0.26 0.27 0.29 0.31 0.31 0.31 0.30 0.28 0.30 0.31 0.33 0.34 0.32 0.33 0.34 0.34
0.23 0.24 0.25 0.25 0.24 0.25 0.24 0.23 0.25 0.27 0.28 0.28 0.29 0.30 0.30 0.29 0.24 0.22 0.22 0.26 0.25 0.25 0.24 0.25 0.25 0.26 0.26 0.24 0.26 0.27 0.29 0.31 0.31 0.31 0.32 0.34 0.36 0.37 0.37 0.36 0.36 0.37 0.39
0.23 0.24 0.25 0.25 0.25 0.25 0.23 0.23 0.25 0.26 0.28 0.28 0.30 0.30 0.29 0.28 0.23 0.23 0.23 0.26 0.25 0.25 0.24 0.26 0.24 0.25 0.25 0.25 0.26 0.26 0.27 0.29 0.32 0.33 0.35 0.37 0.39 0.40 0.40 0.39 0.36 0.34 0.32
0.23 0.24 0.26 0.26 0.25 0.24 0.24 0.24 0.26 0.27 0.27 0.29 0.29 0.31 0.29 0.27 0.23 0.23 0.23 0.26 0.25 0.24 0.24 0.26 0.26 0.25 0.24 0.25 0.26 0.28 0.26 0.27 0.29 0.31 0.34 0.37 0.40 0.42 0.43 0.42 0.40 0.35 0.34
0.26 0.26 0.27 0.27 0.26 0.26 0.26 0.25 0.26 0.26 0.27 0.28 0.28 0.29 0.28 0.26 0.26 0.23 0.23 0.25 0.25 0.22 0.23 0.24 0.27 0.25 0.24 0.26 0.27 0.29 0.27 0.29 0.30 0.31 0.33 0.36 0.38 0.41 0.42 0.43 0.43 0.41 0.37
0.27 0.26 0.26 0.27 0.27 0.27 0.26 0.26 0.26 0.27 0.27 0.27 0.27 0.28 0.28 0.26 0.24 0.24 0.24 0.25 0.24 0.22 0.23 0.25 0.26 0.24 0.25 0.26 0.28 0.28 0.29 0.30 0.30 0.30 0.31 0.33 0.36 0.39 0.42 0.44 0.45 0.44 0.46
0.30 0.27 0.26 0.27 0.27 0.27 0.27 0.25 0.25 0.27 0.28 0.27 0.26 0.26 0.26 0.25 0.27 0.24 0.25 0.25 0.24 0.22 0.24 0.23 0.24 0.25 0.25 0.29 0.29 0.29 0.30 0.30 0.28 0.28 0.29 0.32 0.36 0.40 0.42 0.44 0.44 0.43 0.44
0.31 0.30 0.30 0.27 0.27 0.27 0.28 0.27 0.26 0.27 0.28 0.27 0.25 0.25 0.26 0.25 0.26 0.28 0.27 0.27 0.26 0.26 0.25 0.28 0.27 0.27 0.28 0.28 0.30 0.30 0.30 0.30 0.29 0.29 0.30 0.34 0.37 0.39 0.39 0.42 0.40 0.40 0.39
0.34 0.32 0.32 0.31 0.26 0.26 0.27 0.26 0.26 0.29 0.29 0.27 0.26 0.26 0.25 0.23 0.26 0.28 0.29 0.28 0.27 0.25 0.23 0.28 0.27 0.27 0.26 0.27 0.28 0.29 0.29 0.29 0.28 0.30 0.31 0.32 0.34 0.36 0.38 0.41 0.40 0.39 0.37
0.36 0.34 0.34 0.34 0.30 0.28 0.26 0.27 0.28 0.30 0.29 0.29 0.28 0.28 0.27 0.27 0.27 0.26 0.26 0.25 0.24 0.23 0.25 0.25 0.25 0.26 0.25 0.26 0.26 0.26 0.28 0.28 0.29 0.30 0.31 0.32 0.33 0.35 0.36 0.39 0.41 0.37 0.35
0.39 0.36 0.36 0.37 0.36 0.31 0.27 0.24 0.21 0.25 0.28 0.27 0.25 0.25 0.27 0.25 0.26 0.27 0.28 0.27 0.25 0.24 0.26 0.25 0.26 0.27 0.27 0.27 0.26 0.27 0.27 0.29 0.30 0.31 0.31 0.32 0.34 0.36 0.36 0.38 0.38 0.35 0.34
0.44 0.40 0.38 0.39 0.39 0.36 0.32 0.26 0.25 0.22 0.21 0.23 0.26 0.27 0.28 0.28 0.28 0.29 0.29 0.28 0.26 0.26 0.26 0.25 0.26 0.27 0.26 0.26 0.26 0.26 0.27 0.29 0.30 0.31 0.32 0.33 0.35 0.36 0.36 0.36 0.36 0.34 0.33
0.46 0.43 0.42 0.43 0.43 0.41 0.39 0.35 0.30 0.26 0.25 0.26 0.28 0.29 0.32 0.31 0.31 0.31 0.31 0.28 0.27 0.26 0.27 0.27 0.28 0.28 0.27 0.26 0.27 0.28 0.28 0.28 0.30 0.31 0.32 0.34 0.36 0.37 0.36 0.35 0.35 0.35 0.34
0.48 0.46 0.45 0.45 0.45 0.44 0.43 0.40 0.35 0.30 0.28 0.29 0.30 0.31 0.34 0.33 0.30 0.31 0.31 0.30 0.30 0.28 0.28 0.29 0.29 0.28 0.27 0.26 0.27 0.27 0.28 0.28 0.30 0.31 0.32 0.34 0.36 0.37 0.36 0.34 0.35 0.33 0.33
0.52 0.50 0.49 0.50 0.49 0.48 0.47 0.44 0.40 0.34 0.30 0.31 0.33 0.37 0.36 0.32 0.31 0.32 0.32 0.32 0.31 0.30 0.30 0.31 0.31 0.29 0.28 0.26 0.27 0.27 0.27 0.29 0.30 0.31 0.33 0.34 0.36 0.36 0.36 0.35 0.35 0.34 0.33
0.58 0.54 0.51 0.50 0.51 0.50 0.50 0.47 0.42 0.37 0.33 0.33 0.36 0.41 0.38 0.35 0.34 0.34 0.34 0.33 0.33 0.33 0.34 0.34 0.32 0.30 0.28 0.26 0.26 0.27 0.27 0.28 0.30 0.31 0.33 0.34 0.36 0.37 0.35 0.34 0.33 0.33 0.32
0.62 0.58 0.57 0.56 0.54 0.53 0.51 0.49 0.46 0.44 0.40 0.39 0.40 0.41 0.38 0.36 0.36 0.36 0.36 0.36 0.34 0.34 0.34 0.35 0.33 0.29 0.28 0.27 0.28 0.28 0.28 0.29 0.31 0.33 0.33 0.34 0.36 0.36 0.34 0.33 0.32 0.31 0.30
0.64 0.62 0.60 0.59 0.56 0.53 0.52 0.50 0.48 0.49 0.47 0.44 0.43 0.43 0.40 0.37 0.37 0.37 0.39 0.37 0.36 0.35 0.35 0.34 0.32 0.28 0.27 0.27 0.28 0.29 0.30 0.32 0.33 0.34 0.35 0.35 0.36 0.36 0.34 0.33 0.32 0.30 0.30
0.65 0.63 0.60 0.58 0.55 0.54 0.53 0.51 0.49 0.50 0.51 0.50 0.46 0.46 0.44 0.40 0.38 0.40 0.40 0.38 0.37 0.35 0.34 0.34 0.32 0.29 0.26 0.26 0.27 0.28 0.30 0.31 0.32 0.34 0.35 0.36 0.37 0.36 0.33 0.32 0.31 0.30 0.29
0.63 0.62 0.60 0.58 0.56 0.54 0.52 0.51 0.48 0.49 0.51 0.52 0.51 0.50 0.48 0.41 0.39 0.41 0.42 0.40 0.37 0.36 0.35 0.34 0.31 0.27 0.26 0.26 0.27 0.28 0.29 0.30 0.32 0.33 0.35 0.36 0.37 0.35 0.33 0.32 0.31 0.30 0.28
Wind_Speed
20 19 18 18 17 16 14 13 12 10 9 8 7 5 4 5 5 6 8 9 11 13 15 17 19 21 23 25 27 29 31 33 35 37 39 41 44 45 47 48 48 48 47
19 19 18 18 18 17 15 14 12 10 9 8 7 6 5 5 5 6 8 10 12 14 16 18 20 22 24 26 28 30 32 35 37 39 41 42 44 45 47 48 47 47 47
19 19 19 18 18 17 15 13 12 11 10 8 7 6 5 5 5 6 8 11 13 15 17 19 21 24 26 28 30 32 34 36 37 39 41 43 44 45 47 46 46 46 44
19 20 20 19 18 16 15 14 13 11 10 9 8 7 6 5 6 7 9 12 14 16 18 20 22 24 27 29 31 33 35 37 38 39 41 43 44 45 46 46 45 43 41
20 20 20 19 18 17 16 14 13 12 11 10 8 7 7 6 7 8 10 12 15 17 20 21 23 25 28 30 32 34 36 38 39 40 42 43 44 45 45 45 44 42 39
22 22 21 20 18 17 16 15 13 12 11 10 9 8 7 7 8 9 12 14 16 19 21 22 24 26 29 30 33 35 37 38 39 40 42 43 44 44 44 43 42 39 35
23 22 21 20 19 18 17 15 14 13 12 11 10 9 8 8 9 11 13 15 17 19 21 23 25 27 29 32 33 35 37 37 38 41 42 42 43 43 43 41 38 36 34
24 23 22 21 20 19 17 16 15 14 13 12 10 9 9 9 11 12 15 16 18 20 22 24 26 28 30 32 34 35 37 37 39 40 41 41 41 41 39 37 35 33 32
25 24 23 22 21 20 18 17 16 15 14 12 11 10 10 11 12 14 16 17 19 21 23 24 27 29 31 32 34 36 37 37 39 40 41 40 40 38 36 34 33 31 31
26 25 24 23 22 21 19 18 17 16 15 13 12 12 11 12 13 15 16 18 20 22 23 25 27 29 31 32 34 36 37 38 39 39 39 38 38 36 34 33 32 30 30
27 26 25 24 23 22 20 19 18 17 16 15 14 13 13 14 14 15 17 18 20 22 24 26 27 30 32 32 34 36 37 38 38 38 38 37 36 34 33 32 31 30 30
28 27 26 25 24 22 22 20 19 18 17 16 15 14 14 15 15 16 17 18 20 22 24 26 28 30 32 32 34 36 36 36 37 37 37 36 35 33 32 31 30 30 28
28 28 27 26 25 24 23 22 21 20 18 17 16 16 16 16 16 17 18 19 20 22 24 26 28 29 31 32 34 35 35 35 36 36 36 36 34 33 32 31 30 29 28
29 29 28 27 27 25 24 23 22 21 20 19 18 17 17 17 17 17 18 19 21 22 24 26 27 29 30 32 33 33 34 35 36 36 36 35 34 32 31 30 29 28 27
30 30 29 28 28 27 26 25 24 23 21 20 19 18 17 18 18 18 18 19 21 22 25 26 27 28 30 31 32 33 33 34 35 35 35 34 33 32 31 30 29 28 27
30 30 30 29 28 28 27 25 24 23 22 21 19 19 18 18 17 18 19 20 21 23 24 25 27 28 30 31 32 32 33 34 34 34 34 33 32 32 31 29 28 28 26
31 31 30 29 29 28 28 27 26 25 23 23 22 20 20 19 18 18 19 20 21 23 24 25 26 28 30 30 31 31 32 33 34 33 34 33 32 31 29 28 27 27 25
32 31 30 30 29 28 28 28 27 26 25 24 23 22 21 20 19 19 20 20 21 23 24 25 26 28 29 30 30 30 31 32 32 33 33 32 30 30 28 27 26 24 23
31 30 31 30 29 29 27 27 27 26 26 25 23 23 22 21 20 20 20 21 22 23 23 24 26 28 28 29 28 29 31 31 32 32 31 30 29 28 27 26 24 22 21
33 31 30 29 29 28 27 27 27 27 26 25 24 23 22 21 21 21 21 22 22 23 23 24 26 27 27 27 27 28 29 30 30 30 30 29 28 27 25 24 21 20 19
32 31 31 30 29 29 28 27 27 27 27 26 25 24 23 22 21 21 21 22 22 22 23 24 25 26 26 26 26 27 28 29 29 29 28 27 27 26 23 22 19 18 17
33 32 31 30 29 29 28 27 26 26 27 26 25 24 23 22 22 21 21 21 21 22 22 23 24 24 25 24 25 26 27 27 27 27 26 26 25 24 21 19 17 16 15
34 32 32 32 30 29 29 28 27 26 26 26 26 25 25 24 23 22 21 21 21 22 22 22 23 23 23 23 24 25 25 26 26 26 25 25 24 22 20 17 15 14 14
35 34 33 32 31 30 29 28 27 26 26 26 26 26 25 24 23 22 22 21 21 21 21 22 22 22 22 22 23 24 24 24 24 24 24 23 23 21 18 15 13 12 12
34 34 34 33 32 32 30 29 28 27 26 25 25 26 25 25 24 23 22 21 21 21 21 21 21 21 21 21 22 23 23 23 23 22 22 22 21 19 16 13 12 10 11
31 33 34 33 33 33 32 31 30 29 27 26 26 26 26 25 24 23 22 22 21 21 21 20 20 20 20 20 21 21 22 22 21 21 21 21 20 18 15 13 11 9 9
Wind_Direction
232 232 228 223 219 219 219 217 217 219 225 233 242 251 269 291 311 321 328 333 335 336 336 336 336 335 334 334 333 332 332 331 329 330 329 330 330 330 330 329 328 326 325
227 223 218 215 215 214 213 214 216 220 224 229 234 246 263 284 307 319 328 332 335 336 336 336 335 335 334 334 333 333 333 332 331 330 331 332 332 333 332 331 330 329 328
220 215 212 209 210 208 209 213 216 220 223 227 233 243 255 275 299 315 325 331 333 335 335 334 335 334 334 334 334 333 333 333 332 332 332 333 334 334 334 334 333 332 331
213 209 207 207 206 207 211 215 217 219 224 227 232 237 250 271 294 311 321 327 330 332 333 333 334 335 335 334 334 334 334 334 334 334 334 335 335 336 336 336 335 336 335
206 204 203 203 206 209 212 213 216 220 223 225 229 237 252 270 291 307 318 324 327 330 331 333 334 335 335 335 335 335 335 335 335 336 336 336 336 337 338 337 337 337 339
203 202 203 205 208 210 210 213 217 219 220 224 230 240 253 271 291 308 316 321 325 329 331 332 333 334 335 335 335 336 336 336 336 337 337 336 337 337 338 339 339 341 342
203 204 206 207 209 209 211 214 216 218 220 225 232 241 255 273 290 305 314 319 323 327 330 331 333 334 335 336 336 336 336 336 336 337 336 337 337 337 338 339 341 342 343
205 206 208 208 209 210 212 214 217 218 221 225 233 244 259 276 290 303 311 317 321 325 328 330 332 333 335 336 336 337 337 338 338 338 337 337 337 338 339 340 341 342 343
207 208 208 209 210 211 213 215 217 219 223 228 237 249 264 279 289 302 310 315 320 323 326 328 331 333 334 335 336 337 338 338 338 338 338 338 338 338 339 341 342 342 343
209 209 209 210 212 213 215 216 219 222 226 233 242 254 268 281 290 300 308 314 318 322 325 328 330 333 334 335 336 337 338 339 339 340 341 341 341 341 341 342 342 341 341
210 210 211 212 214 216 217 219 221 225 229 236 246 257 269 280 290 298 305 312 317 321 324 327 329 332 333 334 336 338 338 338 339 340 341 342 342 342 342 342 341 341 341
211 212 213 214 216 218 219 221 224 228 233 239 248 259 271 280 288 295 302 309 315 320 323 326 328 331 333 334 335 337 338 339 340 341 342 342 342 342 342 342 341 341 341
212 213 215 216 218 220 221 224 227 230 236 242 250 260 270 279 287 292 300 306 313 318 322 325 328 330 332 333 335 337 338 340 341 342 342 342 342 342 341 342 342 343 342
214 215 217 218 220 222 225 227 229 233 238 244 252 261 269 277 284 292 298 305 311 316 321 324 327 329 331 333 335 337 339 340 341 342 342 342 342 342 342 342 342 342 343
217 217 219 221 222 224 227 229 232 236 240 246 253 260 267 275 282 289 296 303 310 316 320 324 327 330 332 334 335 337 339 340 341 342 342 342 343 343 342 342 343 343 343
218 219 221 222 224 226 228 231 235 239 241 247 254 261 267 276 280 286 294 301 308 314 318 322 326 329 331 333 335 336 338 340 341 342 342 343 343 343 343 343 344 346 345
220 221 222 224 226 228 230 232 235 239 243 247 253 259 265 272 278 285 292 299 306 312 316 321 324 327 330 332 333 335 337 339 341 342 343 343 343 344 344 345 346 348 350
222 223 224 225 228 230 232 234 236 238 242 246 252 257 262 269 276 283 290 298 304 309 314 318 323 326 329 331 332 334 337 339 341 342 343 344 344 345 346 347 348 351 353
223 224 226 227 229 231 233 235 237 239 242 246 251 255 260 267 274 280 287 295 301 306 311 316 321 324 327 329 331 333 336 338 340 341 343 344 345 346 347 348 350 353 356
224 225 226 227 228 229 232 235 237 239 242 245 250 254 258 264 272 278 285 292 298 304 309 314 318 323 326 328 330 333 335 338 339 341 343 344 345 346 348 349 351 355 359
224 225 226 227 229 231 233 236 239 240 242 245 249 253 256 262 269 277 284 290 295 301 306 311 316 321 324 327 329 332 335 337 339 341 343 344 346 347 348 350 353 356 1
226 226 226 228 230 232 235 237 239 240 242 244 248 252 254 262 269 276 282 288 293 298 304 309 314 319 322 325 328 331 333 336 338 340 342 344 345 346 348 350 354 358 2
226 227 228 231 232 234 235 237 238 240 242 244 247 251 254 260 267 273 280 285 290 296 301 307 312 316 319 322 326 329 332 335 337 339 342 344 345 346 347 350 353 358 3
227 228 230 231 233 234 235 235 238 241 243 246 248 252 254 258 264 270 277 283 288 293 298 304 309 313 317 320 324 327 331 333 336 338 340 343 344 345 346 348 352 357 2
228 229 231 233 234 235 235 236 238 242 245 248 250 252 254 257 262 267 273 278 284 289 295 300 305 309 313 317 322 325 329 332 334 337 339 341 343 344 344 344 347 350 358
230 232 232 234 235 236 236 237 239 242 245 249 252 254 255 256 259 263 269 275 281 286 291 296 300 304 310 316 320 324 327 330 333 335 337 339 341 342 341 339 339 340 345